CST,Max TemperatureF,Mean TemperatureF,Min TemperatureF,Max Dew PointF,MeanDew PointF,Min DewpointF,Max Humidity, Mean Humidity, Min Humidity, Max Sea Level PressureIn, Mean Sea Level PressureIn, Min Sea Level PressureIn, Max VisibilityMiles, Mean VisibilityMiles, Min VisibilityMiles, Max Wind SpeedMPH, Mean Wind SpeedMPH, Max Gust SpeedMPH,PrecipitationIn, CloudCover, Events, WindDirDegrees
2014-2-1,57,45,33,48,36,27,87,77,67,30.06,29.87,29.77,10,6,2,15,4,17,0.00,8,,326
2014-2-2,32,26,21,27,18,9,80,69,54,30.26,30.18,30.07,10,7,0,13,9,20,0.00,7,,353
2014-2-3,33,20,8,14,8,0,79,57,35,30.35,30.27,30.20,10,10,9,8,2,,0.00,0,,51
2014-2-4,32,28,24,27,20,10,86,73,54,30.21,30.01,29.87,10,7,0,12,3,,0.00,6,,69
2014-2-5,32,24,15,27,11,1,86,62,50,30.55,30.33,29.96,10,10,3,15,2,20,0.00,5,,320
2014-2-6,19,14,10,5,1,-2,67,56,46,30.59,30.51,30.43,10,10,3,9,6,,0.00,2,,342
2014-2-7,19,14,8,10,4,-2,73,59,53,30.45,30.37,30.26,10,10,5,8,3,,0.00,6,,95
2014-2-8,33,25,17,25,17,10,79,70,60,30.25,30.16,30.06,10,9,2,6,3,,0.00,8,,95
2014-2-9,33,32,30,25,22,19,75,66,60,30.25,30.17,30.09,10,10,10,10,5,,0.00,8,,15
2014-2-10,30,26,21,19,12,7,69,57,43,30.38,30.32,30.24,10,10,9,13,8,,0.00,4,,31
2014-2-11,30,24,17,7,3,0,63,44,32,30.44,30.35,30.26,10,10,10,10,6,,0.00,0,,51
2014-2-12,42,26,10,12,7,0,73,49,20,30.25,30.10,29.99,10,10,9,6,1,,0.00,0,,86
2014-2-13,57,37,17,25,18,10,74,49,23,29.99,29.89,29.78,10,10,10,16,3,21,0.00,0,,245
2014-2-14,55,40,26,39,25,18,80,64,47,30.10,29.82,29.65,10,10,8,24,5,37,0.00,4,,322
2014-2-15,53,36,19,25,20,12,80,54,30,30.17,30.05,29.93,10,10,8,12,4,21,0.00,1,,152
2014-2-16,57,42,26,30,26,19,75,55,31,30.15,30.08,30.02,10,10,10,12,3,18,0.00,0,,89
2014-2-17,62,48,35,45,27,21,70,51,23,30.13,29.99,29.86,10,9,7,24,8,33,0.00,3,,34
2014-2-18,69,46,24,37,28,18,74,49,26,30.11,29.95,29.79,10,10,10,14,3,21,0.00,0,,197
2014-2-19,64,50,37,39,31,25,70,45,24,30.04,29.91,29.71,10,10,10,12,4,20,0.00,3,,113
2014-2-20,78,58,37,54,41,19,72,54,20,29.91,29.67,29.48,10,10,10,38,12,51,0.00,4,,226
2014-2-21,62,48,33,19,15,12,45,28,14,30.06,29.99,29.91,10,10,10,18,11,29,0.00,0,,237
2014-2-22,69,50,30,28,22,14,56,32,16,30.01,29.93,29.81,10,10,10,15,6,26,0.00,0,,189
2014-2-23,50,42,33,30,25,16,65,52,36,30.25,30.08,29.89,10,10,8,15,5,21,0.00,3,,31
2014-2-24,46,35,24,16,13,10,59,38,27,30.32,30.22,30.11,10,10,10,12,6,16,0.00,3,,86
2014-2-25,48,38,28,21,16,10,64,42,29,30.24,30.18,30.14,10,10,7,15,5,20,0.00,4,,12
2014-2-26,35,27,19,10,3,-2,58,39,22,30.31,30.19,30.06,10,10,10,15,10,22,0.10,2,,329
2014-2-27,48,32,15,12,8,0,58,36,23,30.12,30.03,29.96,10,10,9,10,3,,0.00,0,,71
2014-2-28,44,35,26,30,21,12,75,56,34,30.01,29.96,29.90,10,10,8,12,6,,0.05,4,,110